Location: Columbus
(29.5618°N, 96.6770°W)
Time: 11:29:05
(UTC-05:00)

Daily predictions for brighter satellites

Satellite Brightness Start Highest point End
(mag) Time Altitude Azimuth Time Altitude Azimuth Time Altitude Azimuth
OTV 4 1.4 20:17:23 10° NW 20:20:08 35° NNE 20:22:53 10° E
OAO 2 Rocket 4.1 20:17:34 10° WNW 20:22:21 46° N 20:27:12 10° ENE
Cosmos 1980 Rocket 3.3 20:18:16 10° SSE 20:22:30 22° E 20:26:44 10° NE
USA 186 3.8 20:22:54 10° E 20:23:46 11° ENE 20:24:37 10° ENE
ALOS 3.3 20:20:05 10° SE 20:24:00 27° ENE 20:27:57 10° NNE
Meteor 2-4 Rocket 3.9 20:18:41 10° N 20:24:37 90° ENE 20:30:33 10° S
Cosmos 2369 4.2 20:20:09 10° SSW 20:25:46 68° WNW 20:31:27 10° NNE
H-2A R/B 4.2 20:24:27 10° ESE 20:27:19 20° ENE 20:30:13 10° NNE
FREGAT/IRIS 3.3 20:25:51 10° S 20:28:57 60° W 20:32:03 10° NNW
HJ-1C 3.2 20:26:29 10° SSE 20:29:44 79° ENE 20:33:01 10° N
Cosmos 1821 Rocket 4.3 20:24:50 10° SSW 20:30:54 71° W 20:36:59 10° N
Cosmos 1025 Rocket 3.9 20:26:55 10° NNW 20:31:09 54° W 20:35:19 10° S
Cosmos 1605 Rocket 4.0 20:27:52 10° S 20:34:09 66° E 20:40:21 10° NNE
Orbus 7S 4.0 20:26:11 10° W 20:34:55 70° S 20:37:34 15° ESE
FENGYUN 3A 4.1 20:32:11 10° SE 20:37:07 39° ENE 20:42:04 10° N
Cosmos 1656 3.6 20:32:03 10° SSW 20:37:41 81° ESE 20:43:16 10° NNE
Meteor 2-15 4.4 20:31:51 10° N 20:37:55 77° E 20:43:58 10° S
DELTA 2 R/B (1) 4.5 20:34:02 10° NW 20:39:14 39° NNE 20:43:49 13° E
Cosmos 468 Rocket 4.1 20:34:43 10° S 20:39:39 50° ESE 20:44:35 10° NNE
Cosmos 1455 Rocket 3.6 20:38:39 10° SSW 20:42:54 61° W 20:47:12 10° N
Cosmos 1975 2.9 20:39:30 10° S 20:43:30 57° E 20:47:32 10° NNE
Cosmos 1626 Rocket 4.1 20:40:40 10° NNE 20:44:41 35° E 20:48:07 13° SE
Meteor 2-15 Rocket 4.4 20:38:54 10° N 20:44:58 74° E 20:51:01 10° S
Cosmos 1892 Rocket 4.2 20:42:24 10° NNW 20:46:49 61° W 20:51:13 10° S
EO 1 Delta rocket 4.2 20:42:42 10° NNE 20:47:41 68° E 20:53:48 10° S
CZ-3C R/B 3.9 19:02:02 10° W 20:47:58 62° SSW 20:55:35 18° ESE
Fermi 4.2 20:47:21 10° WSW 20:51:18 47° S 20:53:28 23° ESE
CZ-2D R/B 3.6 20:48:17 13° SSE 20:51:26 46° ENE 20:55:10 10° N
Cosmos 220 Rocket 4.4 20:48:02 10° N 20:52:01 41° ENE 20:54:26 21° SE
Cosmos 1500 3.5 20:48:47 10° SSE 20:52:19 42° E 20:55:53 10° NNE
Cosmos 1814 Rocket 4.1 20:47:11 10° S 20:52:23 57° ESE 20:57:36 10° NNE
Lacrosse 5 rocket 1.4 20:49:08 10° NNW 20:52:41 47° NE 20:54:21 26° ESE
Cosmos 1602 Rocket 3.8 20:50:40 10° N 20:54:58 48° E 20:58:25 15° SSE
Hubble Space Telescope 2.7 20:56:03 10° WSW 20:59:09 20° SSW 21:01:26 14° SSE
Cosmos 2227 Rocket 2.2 20:53:35 10° NNW 20:59:15 89° WSW 21:04:54 10° SSE
Resurs 1-3 4.1 20:56:21 10° S 21:00:40 59° W 21:05:00 10° NNW
CZ-4B DEB 3.0 20:58:56 10° S 21:02:10 72° W 21:05:27 10° NNW
FengYun 1-2 T 4.4 20:56:59 10° S 21:02:37 75° WSW 21:08:14 10° NNW
NOSS 3-4 (A) 4.1 20:57:52 10° NW 21:05:01 70° WSW 21:12:32 10° SSE
NOSS 3-4 (C) 4.1 20:58:00 10° NW 21:05:08 71° WSW 21:12:40 10° SSE
Cosmos 1459 Rocket 4.1 21:05:23 10° SSE 21:11:08 49° E 21:16:58 10° NNE
Cosmos 2123 Rocket 4.3 21:05:22 10° NNW 21:11:30 68° W 21:17:36 10° S
Cosmos 2360 4.4 21:08:02 10° S 21:13:26 46° ESE 21:18:53 10° NNE
Cosmos 2297 Rocket 2.1 21:08:28 10° NNW 21:14:09 86° ENE 21:18:08 20° SSE
Cosmos 2082 4.0 21:10:23 10° NNW 21:15:58 67° WSW 21:21:09 12° S
Delta 2 Rocket 4.2 21:12:47 10° WNW 21:18:28 62° SSW 21:20:41 34° SE
Cosmos 1606 Rocket 4.3 21:22:36 34° ENE 21:22:36 34° ENE 21:25:47 10° NNE
ATLAS 2A CENTAUR R/B 3.0 21:20:15 10° WSW 21:22:07 13° SW 21:22:33 13° SSW
Cosmos 1515 3.5 21:18:57 10° N 21:22:48 80° E 21:23:40 51° SSE
Cosmos 1939 Rocket 4.3 21:24:09 25° NE 21:24:09 25° NE 21:26:40 10° NNE
Iridium 4 Rocket 3.1 21:19:02 10° N 21:23:49 88° E 21:26:32 23° S
Envisat 3.8 21:26:38 32° ENE 21:26:38 32° ENE 21:30:56 10° N
Resurs 01 Rocket 4.1 21:24:23 10° SW 21:27:41 20° W 21:31:00 10° NW
Centaur AC-125 3.9 21:04:37 10° W 21:32:02 75° S 21:34:17 41° ESE
Lacrosse 5 2.5 21:27:50 10° NNW 21:32:33 38° NE 21:32:58 37° ENE
Cosmos 1743 2.6 21:34:26 85° ESE 21:34:28 85° E 21:38:24 10° N
Cosmos 1937 Rocket 3.6 21:29:23 10° N 21:34:34 54° ENE 21:35:08 51° E
Centaur D-1A AC-32 2.6 21:31:47 10° W 21:34:55 38° SSW 21:34:55 38° SSW
Cosmos 2298 Rocket 4.0 21:32:59 10° NNW 21:38:19 85° WSW 21:40:11 42° S
SJ-11-01 4.1 21:41:59 70° E 21:42:06 70° ENE 21:46:45 10° N
Cosmos 1697 Rocket 4.3 21:37:02 10° SW 21:42:10 35° WNW 21:47:18 10° N
Cosmos 990 Rocket 4.4 21:38:38 10° N 21:43:14 45° NE 21:43:14 45° NE
Cosmos 972 Rocket 4.5 21:42:18 10° N 21:48:37 80° ENE 21:50:44 47° SSE
ERS-1 Rocket 2.8 21:48:35 73° E 21:48:42 74° ENE 21:53:43 10° N
SL-08 R/B 4.4 21:50:02 58° SE 21:50:47 63° E 21:56:52 10° NNE
Cosmos 1066 Rocket 4.4 21:47:13 10° NNW 21:52:56 72° W 21:55:20 37° S
Cosmos 1802 Rocket 4.0 21:47:13 10° S 21:53:36 82° W 22:00:04 10° N
SL-16 R/B 3.8 21:57:52 21° NE 21:57:52 21° NE 21:59:44 10° NNE
USA 186 4.2 21:54:36 19° W 21:54:39 19° W 21:56:52 10° NW
RESURS DK-1 3.2 21:51:50 10° NNW 21:54:48 46° NNW 21:54:48 46° NNW
OTV 4 3.4 21:53:47 10° W 21:54:31 15° W 21:54:31 15° W
Cosmos 2016 Rocket 3.9 21:58:34 40° S 22:01:00 86° W 22:07:12 10° N
Cosmos 1763 Rocket 4.2 21:57:05 10° SSW 22:02:01 49° WNW 22:06:57 10° N
Cosmos 1825 Rocket 4.5 22:01:01 10° N 22:04:05 44° NNW 22:04:05 44° NNW
Cosmos 1980 Rocket 3.6 22:00:58 10° SW 22:06:09 37° WNW 22:11:25 10° N
OAO 2 Rocket 3.9 22:02:41 10° WNW 22:07:11 52° N 22:07:11 52° N
H-2A R/B 4.1 22:15:02 20° N 22:15:02 20° N 22:16:23 10° N
Cosmos 2098 Rocket 4.0 22:12:46 68° S 22:13:47 90° W 22:19:50 10° N
DELTA 2 R/B (1) 4.2 22:20:24 10° WNW 22:24:35 51° W 22:24:35 51° W
Cosmos 2263 Rocket 4.3 22:33:12 10° N 22:34:32 15° NNE 22:34:32 15° NNE
Cosmos 2322 Rocket 3.5 22:42:28 33° N 22:42:28 33° N 22:45:43 10° N
